Regional Weather Roundup
Issued by NWS Spokane, WA

Home | Current Version | Previous Version | Text Only | Print | Product List | Glossary On
Versions: 1 2 3 4 5 6 7 8 9 10 11 12 13 14 15 16 17 18 19 20 21 22 23 24 25 26 27 28 29 30 31 32 33 34 35 36 37 38 39 40 41 42 43 44 45 46 47 48 49 50
067
NZUS01 KOTX 252210
RWROTX

Eastern Washington/Northern Idaho Roundup
National Weather Service, Spokane WA
200 PM PST SUN FEB 25 2018

Note: "fair" indicated few or no clouds below 12,000 feet with no
significant weather and/or obstructions to visibility.

...Northeast Washington and Northern Idaho Panhandle...

CITY           SKY/WX    TMP DP  RH WIND       PRES   REMARKS
Spokane Intl   CLOUDY    39  31  72 SW29G41   29.58S
Spokane Downto CLOUDY    41  30  65 SW26G38   29.60F
Coeur d Alene  CLOUDY    38  29  70 SW24G31   29.59
Deer Park      CLOUDY    39  30  70 SW23G30   29.57F
Sandpoint      DRIZZLE   34  32  93 S10       29.57F WCI  26
Bonners Ferry  FLURRIES  32  30  93 CALM      29.51F

...Southeast Washington and southern Idaho Panhandle...

CITY           SKY/WX    TMP DP  RH WIND       PRES   REMARKS
Walla Walla    CLOUDY    44  34  67 S16       29.79S
Pullman/Moscow CLOUDY    38  33  82 SW31G39   29.71F
Lewiston       CLOUDY    43  31  62 S26G38    29.75F
Lowell           N/A     33  31  92 N3        29.81F
Grangeville    FAIR      32  21  64 SW29G41   29.71F WCI  18

...Columbia Basin...

CITY           SKY/WX    TMP DP  RH WIND       PRES   REMARKS
Ephrata        CLOUDY    48  19  31 W28G35    29.63R
Moses Lake     CLOUDY    47  25  42 W28G40    29.63F
Pasco          CLOUDY    51  33  50 SW31G45   29.77F
Richland       CLOUDY    53  33  46 SW29G40   29.74F
Hermiston      CLOUDY    50  31  48 SW28G39   29.80F
Pendleton      CLOUDY    44  31  60 SW23G29   29.80S

...East Slopes Cascades...

CITY           SKY/WX    TMP DP  RH WIND       PRES   REMARKS
The Dalles     LGT RAIN  42  38  85 NW9       29.86R
Yakima         CLOUDY    50  26  39 W16       29.71S
Ellensburg     CLOUDY    40  30  67 NW20      29.69R
Wenatchee      LGT RAIN  40  33  76 NW21G35   29.67R
Winthrop       FAIR      33  29  83 E3        29.64R
Omak           CLOUDY    43  31  62 CALM      29.59S
Sunnyside      MOCLDY    48  29  47 SW23G33   29.73S

...Southern British Columbia...

CITY           SKY/WX    TMP DP  RH WIND       PRES   REMARKS
Penticton      PTSUNNY   39  28  65 S14       29.57R
Castlegar      CLOUDY    36  27  69 S10       29.55F
Cranbrook      CLOUDY    32  23  69 W3        29.44S
Osoyoos          N/A     39  30  70 NW2         N/A
Creston          N/A     34  32  93 NW2         N/A

...Western Montana...

CITY           SKY/WX    TMP DP  RH WIND       PRES   REMARKS
Kalispell      CLOUDY    34  26  72 S14G24    29.54F WCI  25
Missoula       CLOUDY    36  22  56 W8        29.66F

...Neighboring Cities...

CITY           SKY/WX    TMP DP  RH WIND       PRES   REMARKS
Seattle        PTSUNNY   42  33  70 SW16      29.78F
Portland       LGT RAIN  43  37  79 W10       29.93S
Boise          CLOUDY    32  26  78 SE18G25   30.03F WCI  20
Great Falls    PTSUNNY   34  19  54 SW18G31   29.56F WCI  23
Calgary        PTSUNNY   36   5  27 W17G29    29.30R



USA.gov is the U.S. government's official web portal to all federal, state and local government web resources and services.